CDT,Max TemperatureF,Mean TemperatureF,Min TemperatureF,Max Dew PointF,MeanDew PointF,Min DewpointF,Max Humidity, Mean Humidity, Min Humidity, Max Sea Level PressureIn, Mean Sea Level PressureIn, Min Sea Level PressureIn, Max VisibilityMiles, Mean VisibilityMiles, Min VisibilityMiles, Max Wind SpeedMPH, Mean Wind SpeedMPH, Max Gust SpeedMPH,PrecipitationIn, CloudCover, Events, WindDirDegrees
2013-3-1,30,27,24,21,19,16,80,72,64,30.35,30.27,30.19,10,9,4,14,10,17,0.00,8,Snow,349
2013-3-2,32,26,21,21,18,14,80,69,60,30.35,30.27,30.14,10,10,7,9,6,,0.00,6,,192
2013-3-3,39,32,24,27,22,18,80,66,56,30.13,29.93,29.78,10,10,10,16,8,23,0.00,2,,142
2013-3-4,44,38,32,32,27,21,87,68,53,29.99,29.79,29.69,10,9,4,14,9,20,0.00,3,Rain-Snow,93
2013-3-5,33,30,26,30,20,16,87,67,60,30.36,30.16,29.98,10,9,4,26,17,40,0.00,7,Snow,313
2013-3-6,39,30,21,23,19,16,80,64,45,30.43,30.36,30.28,10,10,10,15,8,20,0.00,3,,41
2013-3-7,48,34,21,28,23,18,86,67,43,30.30,30.23,30.14,10,10,10,17,8,23,0.00,0,,122
2013-3-8,55,44,32,36,30,25,80,63,41,30.21,30.11,29.94,10,10,7,20,8,29,0.00,3,Rain,135
2013-3-9,51,46,41,46,42,36,93,84,76,29.94,29.73,29.59,10,6,0,20,10,26,0.20,8,Rain,150
2013-3-10,39,32,24,37,28,19,93,86,74,29.88,29.78,29.64,10,6,1,25,18,36,0.06,8,Rain-Snow,345
2013-3-11,32,28,24,21,20,18,80,75,64,29.99,29.89,29.83,10,9,2,18,13,26,0.00,5,Snow,299
2013-3-12,35,28,21,25,21,18,86,72,56,30.31,30.15,29.99,10,10,7,24,9,37,0.00,4,,296
2013-3-13,39,28,17,25,19,12,86,67,42,30.45,30.37,30.28,10,10,10,9,5,,0.00,2,,273
2013-3-14,57,44,32,39,31,23,87,64,47,30.27,30.12,30.07,10,10,5,10,6,,0.00,1,,226
2013-3-15,62,45,28,45,36,27,93,73,42,30.07,29.83,29.71,10,6,2,21,3,24,0.00,1,,340
2013-3-16,39,34,28,36,28,21,93,77,65,30.19,30.05,29.82,10,9,3,21,15,28,0.00,8,,7
2013-3-17,46,35,24,32,24,19,87,67,46,30.16,29.97,29.78,10,9,2,17,11,24,0.00,4,,94
2013-3-18,39,32,24,30,23,14,87,67,39,30.04,29.87,29.74,10,8,1,29,8,37,0.12,3,Rain-Snow,290
2013-3-19,48,32,17,25,16,9,80,54,24,30.30,30.15,30.04,10,10,10,17,4,23,0.00,1,,305
2013-3-20,35,25,15,18,7,0,79,50,23,30.39,30.29,30.12,10,10,10,18,11,25,0.00,0,,324
2013-3-21,35,26,17,18,11,7,80,55,30,30.11,30.02,29.92,10,10,10,9,4,,0.00,5,,95
2013-3-22,35,30,24,21,17,14,74,56,41,30.04,30.00,29.97,10,10,10,10,6,,0.00,8,,78
2013-3-23,37,32,28,28,24,18,87,71,45,30.11,30.06,30.02,10,8,0,16,7,22,0.01,7,Snow,35
2013-3-24,32,28,24,25,22,19,86,76,64,30.05,30.01,29.98,10,7,2,20,15,30,0.00,8,Snow,333
2013-3-25,33,30,26,25,22,19,86,76,60,30.32,30.17,30.04,10,7,2,20,14,28,0.00,7,Snow,318
2013-3-26,41,29,17,23,18,12,86,65,36,30.38,30.32,30.25,10,10,10,12,6,,0.00,2,,282
2013-3-27,51,36,21,32,25,18,86,63,37,30.30,30.26,30.21,10,10,10,12,3,16,0.00,3,,124
2013-3-28,60,44,28,34,28,21,86,56,22,30.27,30.23,30.16,10,10,7,8,1,,0.00,2,,100
2013-3-29,69,51,33,37,28,18,81,48,14,30.25,30.17,30.06,10,10,7,14,4,20,0.00,1,,143
2013-3-30,69,58,46,54,42,28,93,64,32,30.10,29.95,29.87,10,10,7,20,8,23,0.27,5,Rain,254
2013-3-31,57,45,33,39,28,7,87,56,13,30.13,29.98,29.94,10,9,4,24,9,31,0.03,2,Rain-Snow,327